Home > Time Zones > World Clock > Weather > Italy > Parma > Past weeks

Flag for Italy Weather past 2 weeks in Parma, Italy

Now
77 °F

Clear.


Feels Like: 79 °F
Forecast: 65 / 92 °F
Wind: 3 mph from North

Location: Parma

Current Time: Aug 29, 2015 at 1:26:48 AM

Latest Report: Aug 28, 2015 at 10:50 PM


Visibility: 10 mi

Pressure: 30.15 "Hg

Humidity: 65%

Dew point: 64 °F

Location of ParmaLocation

Historic Weather in Parma — Graph

°F

Parma temperature yesterday

Maximum temperature yesterday: 90 °F (at 4:50 PM)
Minimum temperature yesterday: 66 °F (at 7:00 AM)
Average temperature yesterday: 81 °F

Past Weeks' High & Low Weather Summary

 TemperatureHumidityPressure
High90 °F (Aug 28, 4:50 PM)100% (Aug 19, 7:50 AM)30.18 "Hg (Aug 19, 7:50 AM)
Low59 °F (Aug 22, 7:00 AM)31% (Aug 17, 3:50 PM)29.74 "Hg (Aug 15, 6:50 PM)
Average76 °F61%29.95 "Hg
* Reported Aug 13 10:50 PM — Aug 28 10:50 PM, Parma, Weather by CustomWeather, © 2015

Note: Actual official high and low records may vary slightly from our data, if they occured in-between our weather recording intervals... More about our weather records

Advertising

Parma weather history for previous 24 hours

 ConditionsComfort  
Time TempWeatherWind HumidityBarometerVisibility
10:50 PM
Fri, Aug 28
77 °FClear.3 mph65%30.15 "Hg10 mi
9:50 PM77 °FClear.2 mph61%30.12 "Hg10 mi
8:50 PM81 °FSunny.1 mph58%30.12 "Hg10 mi
7:50 PM84 °FSunny.3 mph55%30.09 "Hg10 mi
6:50 PM88 °FSunny.3 mph40%30.09 "Hg10 mi
5:50 PM90 °FSunny.3 mph38%30.09 "Hg10 mi
4:50 PM90 °FSunny.3 mph41%30.09 "Hg10 mi
3:50 PM88 °FPassing clouds.6 mph40%30.09 "HgN/A
2:50 PM88 °FSunny.3 mph43%30.09 "Hg10 mi
1:50 PM86 °FSunny.6 mph43%30.12 "Hg10 mi
12:50 PM84 °FSunny.9 mph51%30.12 "Hg10 mi
11:50 AM82 °FSunny.6 mph55%30.12 "Hg10 mi
10:50 AM79 °FSunny.7 mph61%30.12 "Hg10 mi
9:50 AM77 °FSunny.7 mph57%30.12 "Hg10 mi
8:50 AM73 °FClear.6 mph61%30.09 "Hg5 mi
7:50 AM70 °FClear.5 mph69%30.09 "Hg5 mi
7:00 AM66 °FClear.5 mph73%30.07 "Hg5 mi
Weather by CustomWeather, © 2015

See weather overviewHow to use our weather pages